sat.trackr.live / text

‹ back to catalog

STARLINK-2128

NORAD 47404 · 2021-005BH

PAYLOAD ACTIVE UNKNOWN

§ Identity

Operator
Country
US
Launch date
2021-01-20
Launch site
AFETR
Launch vehicle
Mass (kg)
RCS (m²)

Purposes: comms

External: N2YO · Heavens-Above · Gunter

§ Orbital elements

Epoch: 2026-07-20T20:42:33.346080Z

Period
87.94 min
Inclination
53.0236°
Eccentricity
0.0013378
Mean motion
16.37445562 rev/d
Perigee alt
163.8 km
Apogee alt
181.4 km
Semi-major
6,550.7 km
B*
6.4903e-4
RAAN
67.8992°
Arg perigee
274.3070°
Mean anomaly
85.6447°
Rev number
30,473

§ Raw data

STARLINK-21281 47404U 21005BH  26201.86288595  .06854044  12303-4  64903-3 0  99982 47404  53.0236  67.8992 0013378 274.3070  85.6447 16.37445562304730

JSON: /api/v1/satellites/47404 · /tle

For live sub-satellite position, see the globe view (requires WebGL).

§ Visibility from observer

Set your observer location to see the next 7 days of passes ≥ 10°. The values pass through the URL so the page stays shareable.

No JS? Fill the form by hand. The geolocation button needs JavaScript.